When you browse on this site, cookies collect data to enhance your experience and personalize the content and advertising you see.
Visit our Privacy Policy to learn more. By continuing to use the site, you agree to this use of cookies and data.
  • In Czech Republic
  • List of Countries
  • For 7 days
  • Water Temperature
  • Satellite Maps
  • Weather Map
  • Weather Widgets
  • user-avatar
    Login

    Hourly Weather Niziny

    Today, 21 November, Wednesday

    Time Temperature Precipitation Wind Pressure Humidity
    00:00 -2°C° 0.2 mm 6 mps 747 mmHg 80%
    01:00 -2°C° 0.2 mm 6 mps 747 mmHg 80%
    02:00 -2°C° 0.2 mm 6 mps 747 mmHg 81%
    03:00 -2°C° 0 mm 6 mps 747 mmHg 81%
    04:00 -1°C° 0 mm 5 mps 746 mmHg 82%
    05:00 -1°C° 0 mm 5 mps 746 mmHg 82%
    06:00 -1°C° 0 mm 5 mps 747 mmHg 82%
    07:00 -1°C° 0 mm 5 mps 747 mmHg 83%
    08:00 -1°C° 0 mm 5 mps 747 mmHg 83%
    09:00 -2°C° 0 mm 6 mps 747 mmHg 81%
    10:00 -2°C° 0 mm 6 mps 747 mmHg 79%
    11:00 -1°C° 0 mm 6 mps 748 mmHg 77%
    12:00 -1°C° 0 mm 6 mps 748 mmHg 76%
    13:00 -1°C° 0 mm 6 mps 747 mmHg 75%
    14:00 +1°C° 0 mm 6 mps 747 mmHg 75%
    15:00 -1°C° 0 mm 6 mps 747 mmHg 76%
    16:00 0°C° 0 mm 5 mps 748 mmHg 78%
    17:00 -1°C° 0 mm 5 mps 748 mmHg 80%
    18:00 -1°C° 0 mm 5 mps 748 mmHg 80%
    19:00 -1°C° 0 mm 5 mps 748 mmHg 81%
    20:00 -1°C° 0 mm 5 mps 749 mmHg 81%
    21:00 -2°C° 0 mm 5 mps 749 mmHg 82%
    22:00 -2°C° 0 mm 5 mps 749 mmHg 83%
    23:00 -2°C° 0 mm 5 mps 749 mmHg 83%

    Tomorrow, 22 November, Thursday

    Time Temperature Precipitation Wind Pressure Humidity
    00:00 -2°C° 0 mm 5 mps 749 mmHg 84%
    01:00 -4°C° 0 mm 5 mps 749 mmHg 85%
    02:00 -3°C° 0 mm 4 mps 749 mmHg 85%
    03:00 -3°C° 0 mm 4 mps 749 mmHg 85%
    04:00 -3°C° 0 mm 4 mps 749 mmHg 85%
    05:00 -3°C° 0 mm 4 mps 749 mmHg 86%
    06:00 -3°C° 0 mm 4 mps 749 mmHg 85%
    07:00 -3°C° 0 mm 4 mps 750 mmHg 85%
    08:00 -3°C° 0 mm 4 mps 750 mmHg 84%
    09:00 -2°C° 0 mm 4 mps 750 mmHg 80%
    10:00 -2°C° 0 mm 4 mps 750 mmHg 76%
    11:00 -1°C° 0 mm 4 mps 750 mmHg 71%
    12:00 0°C° 0 mm 4 mps 750 mmHg 68%
    13:00 +2°C° 0 mm 3 mps 750 mmHg 66%
    14:00 +2°C° 0 mm 3 mps 750 mmHg 63%
    15:00 +1°C° 0 mm 3 mps 750 mmHg 67%
    16:00 0°C° 0 mm 3 mps 750 mmHg 72%
    17:00 -1°C° 0 mm 2 mps 750 mmHg 76%
    18:00 -1°C° 0 mm 2 mps 750 mmHg 77%
    19:00 -2°C° 0 mm 2 mps 750 mmHg 79%
    20:00 -2°C° 0 mm 2 mps 750 mmHg 80%
    21:00 -2°C° 0 mm 2 mps 751 mmHg 80%
    22:00 -2°C° 0 mm 2 mps 751 mmHg 81%
    23:00 -2°C° 0 mm 2 mps 751 mmHg 81%

    Day after tomorrow, 23 November, Friday

    Time Temperature Precipitation Wind Pressure Humidity
    00:00 -2°C° 0 mm 2 mps 751 mmHg 81%
    01:00 -2°C° 0 mm 2 mps 751 mmHg 81%
    02:00 -2°C° 0 mm 2 mps 751 mmHg 81%
    03:00 -2°C° 0 mm 2 mps 751 mmHg 81%
    04:00 -2°C° 0 mm 2 mps 751 mmHg 81%
    05:00 -2°C° 0 mm 2 mps 751 mmHg 81%
    06:00 -2°C° 0 mm 2 mps 751 mmHg 81%
    07:00 -2°C° 0 mm 2 mps 752 mmHg 81%
    08:00 -2°C° 0 mm 2 mps 752 mmHg 81%
    09:00 +1°C° 0 mm 2 mps 752 mmHg 76%
    10:00 +2°C° 0 mm 2 mps 752 mmHg 72%
    11:00 +3°C° 0 mm 2 mps 752 mmHg 67%
    12:00 +4°C° 0 mm 2 mps 752 mmHg 67%
    13:00 +5°C° 0 mm 2 mps 752 mmHg 66%
    14:00 +6°C° 0 mm 2 mps 752 mmHg 66%
    15:00 +4°C° 0 mm 2 mps 751 mmHg 71%
    16:00 +3°C° 0 mm 2 mps 751 mmHg 76%
    17:00 +2°C° 0 mm 2 mps 751 mmHg 82%
    18:00 +2°C° 0 mm 2 mps 751 mmHg 84%
    19:00 +2°C° 0 mm 2 mps 751 mmHg 86%
    20:00 +1°C° 0 mm 2 mps 751 mmHg 88%
    21:00 +2°C° 0 mm 2 mps 751 mmHg 89%
    22:00 +2°C° 0 mm 2 mps 751 mmHg 90%
    23:00 +2°C° 0 mm 2 mps 750 mmHg 91%

    24 November, Saturday

    Time Temperature Precipitation Wind Pressure Humidity
    00:00 +2°C° 0 mm 2 mps 750 mmHg 91%
    01:00 +2°C° 0 mm 2 mps 750 mmHg 92%
    02:00 +1°C° 0 mm 3 mps 750 mmHg 92%
    03:00 +1°C° 0 mm 3 mps 749 mmHg 92%
    04:00 +1°C° 0 mm 3 mps 749 mmHg 92%
    05:00 +1°C° 0 mm 3 mps 748 mmHg 92%
    06:00 +1°C° 0 mm 3 mps 748 mmHg 92%
    07:00 +1°C° 0 mm 3 mps 748 mmHg 92%
    08:00 +1°C° 0 mm 3 mps 747 mmHg 91%
    09:00 +3°C° 0 mm 3 mps 747 mmHg 87%
    10:00 +4°C° 0 mm 4 mps 747 mmHg 82%
    11:00 +5°C° 0 mm 4 mps 747 mmHg 77%
    12:00 +6°C° 0 mm 4 mps 746 mmHg 76%
    13:00 +6°C° 0 mm 4 mps 746 mmHg 75%
    14:00 +8°C° 0 mm 3 mps 745 mmHg 74%
    15:00 +7°C° 0.2 mm 3 mps 745 mmHg 77%
    16:00 +5°C° 0.2 mm 3 mps 745 mmHg 80%
    17:00 +5°C° 0.2 mm 3 mps 744 mmHg 84%
    18:00 +5°C° 0.5 mm 3 mps 744 mmHg 85%
    19:00 +5°C° 0.5 mm 3 mps 744 mmHg 86%
    20:00 +5°C° 0.5 mm 3 mps 744 mmHg 87%
    21:00 +5°C° 0.2 mm 3 mps 744 mmHg 87%
    22:00 +5°C° 0.2 mm 3 mps 744 mmHg 87%
    23:00 +5°C° 0.2 mm 3 mps 744 mmHg 87%

    25 November, Sunday

    Time Temperature Precipitation Wind Pressure Humidity
    00:00 +5°C° 0.1 mm 3 mps 744 mmHg 88%
    01:00 +6°C° 0.1 mm 2 mps 744 mmHg 88%
    02:00 +6°C° 0.1 mm 2 mps 743 mmHg 88%
    03:00 +5°C° 0.3 mm 2 mps 743 mmHg 89%
    04:00 +5°C° 0.3 mm 2 mps 743 mmHg 90%
    05:00 +5°C° 0.3 mm 2 mps 743 mmHg 90%
    06:00 +5°C° 0.6 mm 2 mps 743 mmHg 91%
    07:00 +5°C° 0.6 mm 2 mps 743 mmHg 92%
    08:00 +6°C° 0.6 mm 1 mps 742 mmHg 92%
    09:00 +6°C° 0.3 mm 1 mps 742 mmHg 92%
    10:00 +6°C° 0.3 mm 1 mps 743 mmHg 91%
    11:00 +7°C° 0.3 mm 1 mps 743 mmHg 90%
    12:00 +7°C° 0.2 mm 1 mps 742 mmHg 89%
    13:00 +7°C° 0.2 mm 1 mps 742 mmHg 89%
    14:00 +7°C° 0.2 mm 1 mps 742 mmHg 88%
    15:00 +7°C° 0.1 mm 1 mps 742 mmHg 90%
    16:00 +7°C° 0.1 mm 1 mps 742 mmHg 91%
    17:00 +6°C° 0.1 mm 1 mps 741 mmHg 93%
    18:00 +5°C° 0 mm 0 mps 741 mmHg 93%
    19:00 +5°C° 0 mm 0 mps 741 mmHg 93%
    20:00 +5°C° 0 mm 0 mps 741 mmHg 94%
    21:00 +5°C° 0 mm 0 mps 741 mmHg 94%
    22:00 +6°C° 0 mm 1 mps 741 mmHg 94%
    23:00 +6°C° 0 mm 1 mps 741 mmHg 94%

    26 November, Monday

    Time Temperature Precipitation Wind Pressure Humidity
    00:00 +6°C° 0 mm 1 mps 741 mmHg 94%
    01:00 +6°C° 0 mm 1 mps 740 mmHg 95%
    02:00 +6°C° 0 mm 1 mps 740 mmHg 95%
    03:00 +4°C° 0.1 mm 2 mps 740 mmHg 95%
    04:00 +4°C° 0.1 mm 2 mps 740 mmHg 95%
    05:00 +4°C° 0.1 mm 2 mps 739 mmHg 95%
    06:00 +3°C° 0.3 mm 3 mps 739 mmHg 94%
    07:00 +3°C° 0.3 mm 3 mps 739 mmHg 94%
    08:00 +3°C° 0.3 mm 3 mps 739 mmHg 93%
    09:00 +3°C° 0.3 mm 3 mps 739 mmHg 92%
    10:00 +3°C° 0.3 mm 4 mps 739 mmHg 91%
    11:00 +3°C° 0.3 mm 4 mps 739 mmHg 90%
    12:00 +3°C° 0.1 mm 4 mps 739 mmHg 89%
    13:00 +3°C° 0.1 mm 4 mps 739 mmHg 88%
    14:00 +3°C° 0.1 mm 4 mps 739 mmHg 87%
    15:00 +3°C° 0 mm 4 mps 738 mmHg 87%
    16:00 +3°C° 0 mm 4 mps 738 mmHg 88%
    17:00 +3°C° 0 mm 4 mps 738 mmHg 89%
    18:00 +3°C° 0.1 mm 4 mps 738 mmHg 89%
    19:00 +3°C° 0.1 mm 4 mps 738 mmHg 89%
    20:00 +3°C° 0.1 mm 4 mps 738 mmHg 89%
    21:00 +3°C° 0.4 mm 4 mps 738 mmHg 89%
    22:00 +3°C° 0.4 mm 4 mps 737 mmHg 89%
    23:00 +3°C° 0.4 mm 4 mps 737 mmHg 90%
    Show more